Luverne, MN

11:37 PM CDT on October 20, 2017 (GMT -0500)
Luverne

Weather History for KLYV - December, 2013

Change the Weather History Date:

Friday, December 6, 2013

  Actual Average (KPQN) Record (KPQN)
Temperature  
Mean Temperature -6 °F -  
Max Temperature 1 °F 32 °F 48 °F (2012)
Min Temperature -14 °F 17 °F -18 °F (2005)
Degree Days  
Heating Degree Days 72    
Moisture  
Dew Point -14 °F    
Average Humidity 71    
Maximum Humidity 78    
Minimum Humidity 65    
Precipitation  
Precipitation 0.00 in - - ()
Sea Level Pressure  
Sea Level Pressure 30.51 in    
Wind  
Wind Speed 7 mph (WNW)    
Max Wind Speed 14 mph    
Max Gust Speed -    
Visibility 10 miles    
Events      
Averages and records for this station are not official NWS values.
T = Trace of Precipitation, MM = Missing Value Source: NWS Daily Summary

Daily Weather History Graph

Daily Weather History Graph

Search for Another Location

Airport or City:

Trip Planner

Search our weather history database for the weather conditions in past years. The results will help you decide how hot, cold, wet, or windy it might be!

Date:

Astronomy

Dec. 06, 2013 Rise Set
Actual Time 7:43 AM CST 4:48 PM CST
Civil Twilight 7:11 AM CST 5:20 PM CST
Nautical Twilight 6:35 AM CST 5:56 PM CST
Astronomical Twilight 6:00 AM CST 6:31 PM CST
Moon 10:45 AM CST (12/6) 9:26 PM CST (12/6)
Length of Visible Light 10h 09m
Length of Day
9h 04m
Waxing Crescent, 19% of the Moon is Illuminated
Dec 6
Waxing Crescent
Dec 9
First Quarter
Dec 17
Full
Dec 25
Last Quarter
Jan 1
New

Hourly Weather History & Observations

Time (CST) Temp. Windchill Dew Point Humidity Pressure Visibility Wind Dir Wind Speed Gust Speed Precip Events Conditions
12:14 AM -5.8 °F -19.9 °F -13.0 °F 71% 30.37 in 10.0 mi WNW 6.9 mph - N/A   Clear
12:34 AM -5.8 °F -22.4 °F -13.0 °F 71% 30.37 in 10.0 mi WNW 9.2 mph - N/A   Clear
12:53 AM -5.8 °F -23.4 °F -13.0 °F 71% 30.37 in 10.0 mi WNW 10.4 mph - N/A   Clear
1:14 AM -5.8 °F -25.2 °F -13.0 °F 71% 30.37 in 10.0 mi WNW 12.7 mph - N/A   Clear
1:34 AM -7.6 °F -24.6 °F -13.0 °F 77% 30.38 in 10.0 mi WNW 9.2 mph - N/A   Clear
1:53 AM -7.6 °F -23.4 °F -14.8 °F 71% 30.38 in 10.0 mi WNW 8.1 mph - N/A   Clear
2:14 AM -7.6 °F -22.1 °F -14.8 °F 71% 30.38 in 10.0 mi WNW 6.9 mph - N/A   Clear
2:34 AM -7.6 °F -24.6 °F -14.8 °F 71% 30.38 in 10.0 mi West 9.2 mph - N/A   Clear
2:53 AM -7.6 °F -26.6 °F -14.8 °F 71% 30.38 in 10.0 mi West 11.5 mph - N/A   Clear
3:14 AM -7.6 °F -25.7 °F -14.8 °F 71% 30.38 in 10.0 mi WNW 10.4 mph - N/A   Clear
3:34 AM -7.6 °F -18.8 °F -14.8 °F 71% 30.39 in 10.0 mi NW 4.6 mph - N/A   Clear
3:53 AM -9.4 °F -20.9 °F -14.8 °F 77% 30.39 in 10.0 mi NW 4.6 mph - N/A   Clear
4:14 AM -9.4 °F -18.6 °F -16.6 °F 71% 30.40 in 10.0 mi WNW 3.5 mph - N/A   Clear
4:34 AM -9.4 °F -20.9 °F -16.6 °F 71% 30.41 in 10.0 mi WNW 4.6 mph - N/A   Clear
4:53 AM -9.4 °F -22.7 °F -16.6 °F 71% 30.42 in 10.0 mi NW 5.8 mph - N/A   Clear
5:14 AM -9.4 °F - -16.6 °F 71% 30.42 in 10.0 mi Calm Calm - N/A   Clear
5:34 AM -9.4 °F -20.9 °F -16.6 °F 71% 30.43 in 10.0 mi West 4.6 mph - N/A   Clear
5:53 AM -9.4 °F - -16.6 °F 71% 30.44 in 10.0 mi Calm Calm - N/A   Clear
6:13 AM -9.4 °F - -16.6 °F 71% 30.45 in 10.0 mi Calm Calm - N/A   Clear
6:33 AM -9.4 °F -20.9 °F -16.6 °F 71% 30.45 in 10.0 mi NW 4.6 mph - N/A   Clear
6:54 AM -9.4 °F -20.9 °F -16.6 °F 71% 30.46 in 10.0 mi NW 4.6 mph - N/A   Clear
7:13 AM -9.4 °F -20.9 °F -16.6 °F 71% 30.46 in 10.0 mi WNW 4.6 mph - N/A   Clear
7:33 AM -11.2 °F -27.8 °F -18.4 °F 70% 30.47 in 10.0 mi WNW 8.1 mph - N/A   Clear
7:53 AM -13.0 °F -27.0 °F -18.4 °F 77% 30.47 in 10.0 mi WNW 5.8 mph - N/A   Clear
8:13 AM -9.4 °F -22.7 °F -16.6 °F 71% 30.48 in 10.0 mi WNW 5.8 mph - N/A   Clear
8:34 AM -11.2 °F -26.4 °F -16.6 °F 77% 30.49 in 10.0 mi WNW 6.9 mph - N/A   Clear
8:53 AM -9.4 °F -24.3 °F -16.6 °F 71% 30.50 in 10.0 mi WNW 6.9 mph - N/A   Clear
9:13 AM -9.4 °F -25.6 °F -16.6 °F 71% 30.51 in 10.0 mi WNW 8.1 mph - N/A   Clear
9:34 AM -9.4 °F -22.7 °F -16.6 °F 71% 30.51 in 10.0 mi WNW 5.8 mph - N/A   Clear
9:53 AM -7.6 °F -20.6 °F -14.8 °F 71% 30.52 in 10.0 mi WNW 5.8 mph - N/A   Clear
10:13 AM -5.8 °F -19.9 °F -14.8 °F 65% 30.53 in 10.0 mi NW 6.9 mph - N/A   Clear
10:34 AM -5.8 °F -21.2 °F -14.8 °F 65% 30.53 in 10.0 mi WNW 8.1 mph - N/A   Clear
10:53 AM -5.8 °F -22.4 °F -13.0 °F 71% 30.54 in 10.0 mi NW 9.2 mph - N/A   Clear
11:13 AM -4.0 °F -20.2 °F -13.0 °F 65% 30.54 in 10.0 mi WNW 9.2 mph - N/A   Clear
11:34 AM -4.0 °F -20.2 °F -11.2 °F 71% 30.53 in 10.0 mi WNW 9.2 mph - N/A   Clear
11:53 AM -2.2 °F -18.9 °F -9.4 °F 71% 30.53 in 10.0 mi WNW 10.4 mph - N/A   Clear
12:13 PM -0.4 °F -15.7 °F -9.4 °F 66% 30.53 in 10.0 mi WNW 9.2 mph - N/A   Clear
12:34 PM -0.4 °F -15.7 °F -9.4 °F 66% 30.52 in 10.0 mi WNW 9.2 mph - N/A   Clear
12:53 PM -0.4 °F -16.7 °F -9.4 °F 66% 30.51 in 10.0 mi WNW 10.4 mph - N/A   Clear
1:13 PM -0.4 °F -16.7 °F -9.4 °F 66% 30.51 in 10.0 mi WNW 10.4 mph - N/A   Clear
1:34 PM 1.4 °F -16.1 °F -7.6 °F 66% 30.51 in 10.0 mi WNW 12.7 mph - N/A   Clear
1:53 PM 1.4 °F -16.1 °F -7.6 °F 66% 30.51 in 10.0 mi WNW 12.7 mph - N/A   Clear
2:14 PM 1.4 °F -16.1 °F -7.6 °F 66% 30.51 in 10.0 mi WNW 12.7 mph - N/A   Clear
2:33 PM -0.4 °F -15.7 °F -7.6 °F 72% 30.52 in 10.0 mi WNW 9.2 mph - N/A   Clear
2:54 PM 1.4 °F -15.3 °F -7.6 °F 66% 30.53 in 10.0 mi WNW 11.5 mph - N/A   Clear
3:13 PM 1.4 °F -16.9 °F -7.6 °F 66% 30.53 in 10.0 mi WNW 13.8 mph - N/A   Clear
3:34 PM -0.4 °F -18.4 °F -7.6 °F 72% 30.53 in 10.0 mi WNW 12.7 mph - N/A   Clear
3:54 PM -0.4 °F -17.6 °F -7.6 °F 72% 30.54 in 10.0 mi WNW 11.5 mph - N/A   Clear
4:13 PM -0.4 °F -15.7 °F -9.4 °F 66% 30.54 in 10.0 mi WNW 9.2 mph - N/A   Clear
4:34 PM -0.4 °F -16.7 °F -9.4 °F 66% 30.55 in 10.0 mi WNW 10.4 mph - N/A   Clear
4:54 PM -2.2 °F -16.8 °F -9.4 °F 71% 30.55 in 10.0 mi WNW 8.1 mph - N/A   Clear
5:13 PM -4.0 °F -19.0 °F -9.4 °F 78% 30.55 in 10.0 mi WNW 8.1 mph - N/A   Clear
5:34 PM -4.0 °F -17.8 °F -11.2 °F 71% 30.56 in 10.0 mi West 6.9 mph - N/A   Clear
5:54 PM -4.0 °F -19.0 °F -11.2 °F 71% 30.57 in 10.0 mi WNW 8.1 mph - N/A   Clear
6:13 PM -4.0 °F -19.0 °F -11.2 °F 71% 30.57 in 10.0 mi WNW 8.1 mph - N/A   Clear
6:34 PM -4.0 °F -17.8 °F -13.0 °F 65% 30.57 in 10.0 mi WNW 6.9 mph - N/A   Clear
6:54 PM -5.8 °F -18.4 °F -13.0 °F 71% 30.58 in 10.0 mi WNW 5.8 mph - N/A   Clear
7:13 PM -5.8 °F -19.9 °F -13.0 °F 71% 30.59 in 10.0 mi NW 6.9 mph - N/A   Clear
7:34 PM -5.8 °F -16.7 °F -13.0 °F 71% 30.59 in 10.0 mi NW 4.6 mph - N/A   Clear
7:54 PM -5.8 °F -14.5 °F -13.0 °F 71% 30.60 in 10.0 mi WNW 3.5 mph - N/A   Clear
8:13 PM -7.6 °F - -13.0 °F 77% 30.60 in 10.0 mi Calm Calm - N/A   Clear
8:34 PM -7.6 °F - -13.0 °F 77% 30.61 in 10.0 mi Calm Calm - N/A   Clear
8:54 PM -7.6 °F - -14.8 °F 71% 30.61 in 10.0 mi Calm Calm - N/A   Clear
9:13 PM -7.6 °F - -14.8 °F 71% 30.62 in 10.0 mi Calm Calm - N/A   Clear
9:34 PM -9.4 °F -20.9 °F -14.8 °F 77% 30.62 in 10.0 mi WNW 4.6 mph - N/A   Clear
9:54 PM -13.0 °F - -18.4 °F 77% 30.63 in 10.0 mi Calm Calm - N/A   Clear
10:13 PM -14.8 °F - -20.2 °F 77% 30.63 in 10.0 mi Calm Calm - N/A   Clear
10:34 PM -13.0 °F -22.7 °F -18.4 °F 77% 30.63 in 10.0 mi WSW 3.5 mph - N/A   Clear
10:53 PM -11.2 °F -20.6 °F -16.6 °F 77% 30.64 in 10.0 mi West 3.5 mph - N/A   Clear
11:14 PM -9.4 °F -20.9 °F -16.6 °F 71% 30.63 in 10.0 mi West 4.6 mph - N/A   Clear
11:34 PM -11.2 °F - -16.6 °F 77% 30.64 in 10.0 mi Calm Calm - N/A   Clear
11:54 PM -11.2 °F -20.6 °F -16.6 °F 77% 30.65 in 10.0 mi West 3.5 mph - N/A   Clear